Hourly Data Report for September 30, 2017

All times are specified in Local Standard Time (LST). Add 1 hour to adjust for Daylight Saving Time where and when it is observed.

RANKIN INLET A
NUNAVUT

62°48'38.000" N
92°06'53.000" W
32.30 m
2303405
71083
YRT

Download Data

Hourly Data (September 2017)
Hourly Data Report for September 30, 2017
Temp Definition
°C
Dew Point Temp Definition
°C
Rel Hum Definition
%
Wind Dir Definition
10's deg

Wind Spd Definition
km/h
Visibility Definition
km
Stn Press Definition
kPa
Hmdx Definition


Wind Chill Definition


Weather Definition


TIME
00:00 Legend Double Dagger 5.0 3.4 90 33 39 24.1 99.53     Cloudy
01:00 Legend Double Dagger 2.3 0.6 88 33 46 24.1 99.58     LegendNANA
02:00 Legend Double Dagger 1.8 0.1 88 34 46 24.1 99.67     LegendNANA
03:00 Legend Double Dagger 0.6 -2.0 83 33 41 24.1 99.82     Mainly Clear
04:00 Legend Double Dagger 0.0 -3.0 80 35 49 24.1 99.95   -8 LegendNANA
05:00 Legend Double Dagger -0.5 -3.2 82 35 47 24.1 100.07   -9 LegendNANA
06:00 Legend Double Dagger -1.0 -3.1 86 35 39 24.1 100.18   -9 Mainly Clear
07:00 Legend Double Dagger -1.0 -4.2 79 36 52 24.1 100.30   -10 LegendNANA
08:00 Legend Double Dagger -1.3 -4.5 79 36 45 24.1 100.44   -10 LegendNANA
09:00 Legend Double Dagger -0.8 -4.3 77 1 48 24.1 100.56   -9 Mainly Clear
10:00 Legend Double Dagger -0.2 -4.0 76 36 36 24.1 100.72   -7 LegendNANA
11:00 Legend Double Dagger 0.1 -4.0 74 36 36 24.1 100.82     LegendNANA
12:00 Legend Double Dagger 0.8 -3.9 71 2 34 24.1 100.92     Mainly Clear
13:00 Legend Double Dagger 1.4 -3.7 69 2 27 24.1 101.05     LegendNANA
14:00 Legend Double Dagger 1.3 -3.7 70 1 31 24.1 101.14     LegendNANA
15:00 Legend Double Dagger 1.5 -4.3 65 3 28 24.1 101.23     Mainly Clear
16:00 Legend Double Dagger 1.1 -4.3 67 3 25 24.1 101.33     LegendNANA
17:00 Legend Double Dagger 0.5 -4.3 70 3 18 24.1 101.44     LegendNANA
18:00 Legend Double Dagger -0.2 -4.0 76 4 14 24.1 101.53   -4 Mainly Clear
19:00 Legend Double Dagger -0.8 -4.3 77 5 15 24.1 101.61   -5 LegendNANA
20:00 Legend Double Dagger -0.9 -4.6 76 5 16 24.1 101.66   -6 LegendNANA
21:00 Legend Double Dagger -1.2 -4.8 77 6 15 24.1 101.72   -6 Clear
22:00 Legend Double Dagger -1.4 -5.0 77 7 16 24.1 101.78   -6 LegendNANA
23:00 Legend Double Dagger -1.6 -4.9 78 7 13 24.1 101.82   -6 LegendNANA

Notes on Data Quality.

Legend

  • E = Estimated
  • M = Missing
  • NA = Not Available
  • ‡ = Partner data that is not subject to review by the National Climate Archives
Date modified: